O3B FM2

Last updated on Thu Dec 28 2023 00:03:05 GMT+0000 (Greenwich Mean Time)

1 39190U 13031C 23361.31953894 -.00000024 00000+0 00000+0 0 9992 2 39190 0.0665 5.1085 0002816 268.3449 86.5129 5.00115354191942
UTC large
Height (km)
Speed (km/s)
/
Latitude / Longitude
Inclination (degrees)
Orbital Period (minutes)
Azimuth
Elevation
Range (km)
Doppler Factor

Next 0 passes for location: London (51.5072 / 0.1276)

Sorry there are no passes over London.